This is the latest recevied weather packets stored in our database for station/object KC5DP. If no packets are shown the sender has not sent any weather packets the latest 10 day(s).
| Time | Temp. | Humidity | Pressure | Rain* | Wind** | Luminosity | Snow |
|---|---|---|---|---|---|---|---|
| 1777570700 | 23.33° C | 90% | 1010.8 hPa | 0 mm | - | 626 W/m² | - |
| 1777570396 | 23.33° C | 90% | 1011 hPa | 0 mm | - | 315 W/m² | - |
| 1777570092 | 22.78° C | 91% | 1010.9 hPa | 0 mm | - | 486 W/m² | - |
| 1777569788 | 22.78° C | 92% | 1011.1 hPa | 0 mm | - | 394 W/m² | - |
| 1777569484 | 22.78° C | 95% | 1011.1 hPa | 0 mm | - | 525 W/m² | - |
| 1777569181 | 22.22° C | 97% | 1011.4 hPa | 0 mm | - | 341 W/m² | - |
| 1777568877 | 22.22° C | 98% | 1011.6 hPa | 0 mm | - | 442 W/m² | - |
| 1777568574 | 21.67° C | 98% | 1011.8 hPa | 0 mm | - | 394 W/m² | - |
| 1777568272 | 21.67° C | 98% | 1011.9 hPa | 0 mm | - | 256 W/m² | - |
| 1777567968 | 21.67° C | 98% | 1011.9 hPa | 0 mm | - | 274 W/m² | - |
| 1777567664 | 21.67° C | 99% | 1011.9 hPa | 0 mm | - | 513 W/m² | - |
| 1777567362 | 21.67° C | 98% | 1012 hPa | 0 mm | - | 589 W/m² | - |
| 1777567060 | 21.11° C | 99% | 1011.8 hPa | 1.78 mm | - | 498 W/m² | - |
| 1777566757 | 20.56° C | 99% | 1011.6 hPa | 0 mm | - | 181 W/m² | - |
| 1777566455 | 20.56° C | 99% | 1011.6 hPa | 0 mm | - | 181 W/m² | - |
| 1777566152 | 20.56° C | 99% | 1011.7 hPa | 1.27 mm | - | 140 W/m² | - |
| 1777565847 | 20.56° C | 99% | 1011.3 hPa | 1.27 mm | - | 121 W/m² | - |
| 1777565544 | 20.56° C | 99% | 1011.3 hPa | 1.78 mm | - | 130 W/m² | - |
| 1777565241 | 20.56° C | 99% | 1011.3 hPa | 1.78 mm | - | 94 W/m² | - |
| 1777564937 | 20.56° C | 99% | 1011.7 hPa | 0 mm | - | 77 W/m² | - |
| 1777564632 | 20.56° C | 99% | 1011.9 hPa | 0 mm | - | 76 W/m² | - |
| 1777564328 | 20.56° C | 99% | 1011.8 hPa | 0 mm | - | 96 W/m² | - |
| 1777564024 | 20.56° C | 99% | 1011.8 hPa | 0 mm | - | 136 W/m² | - |
| 1777563720 | 20.56° C | 99% | 1011.8 hPa | 1.27 mm | - | 102 W/m² | - |
| 1777563416 | 20° C | 99% | 1012.1 hPa | 10.67 mm | - | 70 W/m² | - |
* Rain latest hour (hover to see other rain measurements)
** Current wind speed in m/s (hover to see current wind gust speed)